Location: Baili�vre
(50.0696°N, 4.2409°E)
Time: 19:43:10
(UTC+00:00)

ERBS - Pass Details

Date: 08 August 2020
Orbit: 412 x 420 km, 57.0° (Epoch: 22 September)

Event Time Altitude Azimuth Distance (km) Brightness Sun altitude
Rises 23:45:47 0° 301° (WNW) 2,357 6.5 -24.1°
Reaches altitude 10° 23:47:59 10° 311° (NW) 1,492 5.5 -24.2°
Maximum altitude 23:51:05 35° 19° (NNE) 687 3.8 -24.2°
Enters shadow 23:51:10 35° 23° (NNE) 688 3.8 -24.2°
